Simultaneous Nadir Overpasses (SNOs) Predictions

Prediction of SNOs between GOES-14 and NOAA-20 Satellite Orbit:

Table of predicted SNOs for the next 14.0 days since TLE Epoch: 8/21/2021
Index Date Time (GOES-14) GOES-14 Lat,Lon NOAA-20 Lat,Lon Distance(km) Time Diff (sec)
1 08/21/2021 08:17:56 0.40,-104.17 0.31,-103.64 59.93 80
2 08/23/2021 20:21:08 -0.41,-104.36 -0.40,-104.43 8.51 80
3 08/26/2021 08:26:50 0.41,-104.19 0.62,-105.16 110.71 80
4 08/27/2021 08:05:26 0.40,-104.18 -0.41,-100.63 404.47 80
5 08/28/2021 20:27:22 -0.41,-104.34 -0.77,-105.94 181.72 80
6 08/29/2021 20:11:18 -0.41,-104.35 0.26,-101.41 335.41 80
7 08/31/2021 08:33:04 0.41,-104.20 0.98,-106.67 281.18 80
8 09/01/2021 08:11:39 0.40,-104.19 -0.05,-102.14 233.72 80
9 09/02/2021 20:33:36 -0.40,-104.32 -1.13,-107.44 356.55 80
10 09/03/2021 20:17:31 -0.40,-104.33 -0.10,-102.92 160.47 80
